Notices

What's New in latest Release from April 7th, 2021:

- Updated Glossary, including Speed of Maximum Gust, and Total Hourly Precipitation

- Updated national and regional climate services offices contacts and prices information

- Addition of station inventory lists for 1981-2010, 1971-2000, and 1961-1990 Normals.

If you haven't already, please take our survey and provide feedback about our website: https://eccc.sondage-survey.ca/f/LanguageSelection.aspx?s=442ca660-fcf1-47c0-95a9-59707d6fd709

Hourly Data Report for January 14, 2012

HALIFAX STANFIELD INT'L A
NOVA SCOTIA

44°52'48.060" N
63°30'00.050" W
145.40 m
8202250
71395
YHZ

Download Data

Hourly Data (January 2012)
Hourly Data Report for January 14, 2012
TIME
LST
Temp Definition
°C
Dew Point Definition
°C
Rel Hum Definition
%
Precip. Amount Definition
mm

Wind Dir Definition
10's deg

Wind Spd Definition
km/h
Visibility Definition
km
Stn Press Definition
kPa
Hmdx Definition


Wind Chill Definition


Weather Definition


00:00 2.5 -2.2 71   22 54 24.1 97.35     Mostly Cloudy
01:00 1.7 -3.7 67   22 54 24.1 97.28     Mainly Clear
02:00 1.2 -2.9 74   22 52 24.1 97.36     Snow Showers
03:00 0.9 -3.3 73   22 46 24.1 97.41     Snow Showers
04:00 0.9 -3.2 74   23 46 24.1 97.51     Snow Showers
05:00 1.1 -3.5 71   24 41 24.1 97.61     Cloudy
06:00 1.5 -3.4 70   24 41 24.1 97.75     Cloudy
07:00 1.7 -4.0 66   25 35 24.1 97.92     Cloudy
08:00 1.7 -4.3 64   25 33 24.1 98.10     Cloudy
09:00 1.7 -3.6 68   24 24 24.1 98.24     Cloudy
10:00 1.8 -2.7 72   24 20 24.1 98.33     Cloudy
11:00 2.0 -2.4 73   24 28 24.1 98.38     Cloudy
12:00 1.4 -1.4 82   24 26 24.1 98.33     Snow Showers
13:00 1.0 -0.9 87   26 13 24.1 98.30     Snow Showers
14:00 0.6 -2.8 78   27 11 24.1 98.27     Snow Showers
15:00 0.6 -3.5 74   26 13 24.1 98.29     Snow Grains
16:00 0.0 -3.7 76   32 11 24.1 98.30   -4 Snow Grains
17:00 -0.6 -4.0 78   31 6 24.1 98.33   -3 Mostly Cloudy
18:00 -0.8 -3.9 79   28 9 24.1 98.41   -4 Snow Showers
19:00 -0.8 -5.0 73   26 11 24.1 98.41   -5 Snow Showers
20:00 -1.9 -6.3 72   27 17 24.1 98.47   -7 Snow Showers
21:00 -2.8 -5.9 79   30 24 16.1 98.55   -9 Snow Showers
22:00 -4.1 -7.3 78   30 24 9.7 98.64   -11 Snow Showers
23:00 -5.0 -9.3 72   30 30 16.1 98.68   -13 Snow Showers

Notes on Data Quality.

Legend

  • E = Estimated
  • M = Missing
  • NA = Not Available*
  • [empty] = Indicates an unobserved value
Date modified: